World > North America > United States > Mississippi > Farmington  

Farmington, MS Hourly Weather Updates

Feedback E-mail the Weather

Quick Clicks

Farmington, MS Weather Maps

°F °C°F °C
Farmington Weather Map
UTC Time: 4/23/2024, 16:54
Your Time:

Farmington, MS Regional Weather

Expires:202404231700;;244838
ASUS44 KJAN 231610
RWRMS 

MISSISSIPPI HOURLY WEATHER ROUNDUP
NATIONAL WEATHER SERVICE JACKSON MS
1100 AM CDT TUE APR 23 2024

NOTE: "FAIR: INDICATES FEW OR NO CLOUDS BELOW 12,000 FEET WITH NO
SIGNIFICANT WEATHER AND/OR OBSTRUCTIONS TO VISIBILITY.


MSZ003>006-009-014>017-022>024-029>033-037>039-231700-
NORTHEAST MISSISSIPPI
  
CITY           SKY/WX    TMP DP  RH WIND       PRES   REMARKS
ABERDEEN       SUNNY     68  39  34 S13G21    30.20S                  
COLUMBUS AFB   SUNNY     69  39  33 S14G21    30.16F                  
CORINTH        SUNNY     66  43  42 S13       30.16S                  
IUKA             N/A     65  38  35 SW8       30.17S                  
LOUISVILLE     SUNNY     64  41  42 S12       30.22S                  
STARKVILLE     SUNNY     66  43  42 S12       30.17F                  
TUPELO         SUNNY     69  41  36 S15G25    30.17S                  
$$


SKY/WX - Weather  TMP - Temperature  DP - Dew Point  RH - Humidity
WIND - Wind Direction/Speed PRES - Barometric Pressure VSB - Visibility
WCI - Wind Chill Index E13G22 Wind - East Wind 13 mph/Gusts of 22 mph

Trending Headlines

Trending Entertainment Headlines

Farmington Radar Loop

Use the map search tool if you want to place a location marker on the radar map...

Farmington Quick Facts

National Two Day Weather Forecast


E-mail the Farmington Weather Forecast

Voice your opinion or tell us about page issues...